Time,TemperatureF,DewpointF,PressureIn,WindDirection,WindDirectionDegrees,WindSpeedMPH,WindSpeedGustMPH,Humidity,HourlyPrecipIn,Conditions,Clouds,dailyrainin,SoftwareType,DateUTC
2013-01-10 00:00:00,43.4,32.8,30.23,WSW,247,2.0,8.0,66,0.00,,---,0.00,VWS V14.01,2013-01-10 05:00:00,
2013-01-10 00:05:00,43.6,32.6,30.24,ESE,120,0.0,6.0,65,0.00,,---,0.00,VWS V14.01,2013-01-10 05:05:00,
2013-01-10 00:10:00,43.5,32.5,30.23,WSW,242,3.0,6.0,65,0.00,,---,0.00,VWS V14.01,2013-01-10 05:10:00,
2013-01-10 00:15:00,43.4,32.4,30.24,West,262,3.0,6.0,65,0.00,,---,0.00,VWS V14.01,2013-01-10 05:15:00,
2013-01-10 00:20:00,43.9,32.1,30.25,SSW,203,1.0,6.0,63,0.00,,---,0.00,VWS V14.01,2013-01-10 05:20:00,
2013-01-10 00:25:00,43.5,32.2,30.25,West,266,5.0,6.0,64,0.00,,---,0.00,VWS V14.01,2013-01-10 05:25:00,
2013-01-10 00:30:00,43.4,31.7,30.25,WSW,243,1.0,6.0,63,0.00,,---,0.00,VWS V14.01,2013-01-10 05:30:00,
2013-01-10 00:35:00,43.3,32.0,30.25,WSW,253,0.0,3.0,64,0.00,,---,0.00,VWS V14.01,2013-01-10 05:35:00,
2013-01-10 00:41:00,43.1,31.4,30.25,SW,235,1.0,3.0,63,0.00,,---,0.00,VWS V14.01,2013-01-10 05:41:00,
2013-01-10 00:46:00,42.8,31.1,30.26,WNW,283,2.0,3.0,63,0.00,,---,0.00,VWS V14.01,2013-01-10 05:46:00,
2013-01-10 00:59:00,42.6,30.9,30.27,West,274,3.0,3.0,63,0.00,,---,0.00,VWS V14.01,2013-01-10 05:59:00,
2013-01-10 01:00:00,42.6,30.9,30.27,West,260,3.0,5.0,63,0.00,,---,0.00,VWS V14.01,2013-01-10 06:00:00,
2013-01-10 01:04:00,42.9,30.8,30.27,WSW,239,2.0,3.0,62,0.00,,---,0.00,VWS V14.01,2013-01-10 06:04:00,
2013-01-10 01:09:00,43.2,30.7,30.27,ESE,121,2.0,5.0,61,0.00,,---,0.00,VWS V14.01,2013-01-10 06:09:00,
2013-01-10 01:14:00,43.1,30.2,30.27,SSE,160,0.0,5.0,60,0.00,,---,0.00,VWS V14.01,2013-01-10 06:14:00,
2013-01-10 01:19:00,43.0,29.7,30.27,NW,324,0.0,5.0,59,0.00,,---,0.00,VWS V14.01,2013-01-10 06:19:00,
2013-01-10 01:24:00,43.0,29.7,30.27,NNW,328,2.0,5.0,59,0.00,,---,0.00,VWS V14.01,2013-01-10 06:24:00,
2013-01-10 01:29:00,43.0,29.7,30.27,SSE,148,1.0,10.0,59,0.00,,---,0.00,VWS V14.01,2013-01-10 06:29:00,
2013-01-10 01:30:00,43.0,29.7,30.27,WNW,285,5.0,10.0,59,0.00,,---,0.00,VWS V14.01,2013-01-10 06:30:00,
2013-01-10 01:34:00,43.1,29.0,30.28,SW,221,1.0,11.0,58,0.00,,,0.00,weatherlink.com 1.10,2013-01-10 06:34:00,
2013-01-10 01:39:00,43.4,28.8,30.28,WNW,290,3.0,9.0,56,0.00,,---,0.00,VWS V14.01,2013-01-10 06:39:00,
2013-01-10 01:44:00,43.4,28.8,30.28,WNW,289,1.0,9.0,56,0.00,,---,0.00,VWS V14.01,2013-01-10 06:44:00,
2013-01-10 01:49:00,43.7,28.2,30.29,NW,309,0.0,10.0,54,0.00,,---,0.00,VWS V14.01,2013-01-10 06:49:00,
2013-01-10 01:54:00,43.7,28.2,30.29,NNE,15,1.0,10.0,54,0.00,,---,0.00,VWS V14.01,2013-01-10 06:54:00,
2013-01-10 01:59:00,43.5,28.9,30.30,SW,225,0.0,10.0,56,0.00,,---,0.00,VWS V14.01,2013-01-10 06:59:00,
2013-01-10 02:00:00,43.4,28.3,30.30,WSW,242,1.0,10.0,55,0.00,,---,0.00,VWS V14.01,2013-01-10 07:00:00,
2013-01-10 02:04:00,43.3,27.8,30.30,West,280,5.0,6.0,54,0.00,,---,0.00,VWS V14.01,2013-01-10 07:04:00,
2013-01-10 02:09:00,43.6,28.1,30.30,SSW,205,2.0,9.0,54,0.00,,---,0.00,VWS V14.01,2013-01-10 07:09:00,
2013-01-10 02:14:00,43.5,28.0,30.30,WSW,253,2.0,9.0,54,0.00,,---,0.00,VWS V14.01,2013-01-10 07:14:00,
2013-01-10 02:19:00,43.6,27.6,30.31,NW,311,2.0,9.0,53,0.00,,---,0.00,VWS V14.01,2013-01-10 07:19:00,
2013-01-10 02:24:00,43.6,27.6,30.31,WNW,287,0.0,9.0,53,0.00,,---,0.00,VWS V14.01,2013-01-10 07:24:00,
2013-01-10 02:29:00,43.3,27.8,30.31,SE,130,3.0,9.0,54,0.00,,---,0.00,VWS V14.01,2013-01-10 07:29:00,
2013-01-10 02:30:00,43.2,28.1,30.32,WNW,290,3.0,9.0,55,0.00,,---,0.00,VWS V14.01,2013-01-10 07:30:00,
2013-01-10 02:34:00,43.1,28.0,30.32,NNE,26,4.0,4.0,55,0.00,,---,0.00,VWS V14.01,2013-01-10 07:34:00,
2013-01-10 02:39:00,43.1,27.6,30.32,ENE,70,0.0,4.0,54,0.00,,---,0.00,VWS V14.01,2013-01-10 07:39:00,
2013-01-10 02:44:00,43.1,28.0,30.33,West,277,3.0,4.0,55,0.00,,---,0.00,VWS V14.01,2013-01-10 07:44:00,
2013-01-10 02:49:00,42.8,28.2,30.33,NNE,22,0.0,7.0,56,0.00,,---,0.00,VWS V14.01,2013-01-10 07:49:00,
2013-01-10 02:54:00,42.5,27.9,30.33,NW,315,2.0,9.0,56,0.00,,---,0.00,VWS V14.01,2013-01-10 07:54:00,
2013-01-10 02:59:00,42.8,27.8,30.33,NNE,27,1.0,11.0,55,0.00,,---,0.00,VWS V14.01,2013-01-10 07:59:00,
2013-01-10 03:00:00,42.9,27.9,30.33,NNE,27,2.0,11.0,55,0.00,,---,0.00,VWS V14.01,2013-01-10 08:00:00,
2013-01-10 03:04:00,42.8,28.2,30.33,SE,135,1.0,2.0,56,0.00,,---,0.00,VWS V14.01,2013-01-10 08:04:00,
2013-01-10 03:09:00,42.5,27.9,30.34,NW,307,3.0,11.0,56,0.00,,---,0.00,VWS V14.01,2013-01-10 08:09:00,
2013-01-10 03:14:00,42.5,27.5,30.34,West,273,2.0,11.0,55,0.00,,---,0.00,VWS V14.01,2013-01-10 08:14:00,
2013-01-10 03:19:00,42.7,27.7,30.34,WNW,282,3.0,11.0,55,0.00,,---,0.00,VWS V14.01,2013-01-10 08:19:00,
2013-01-10 03:24:00,42.6,27.1,30.34,NW,314,0.0,11.0,54,0.00,,---,0.00,VWS V14.01,2013-01-10 08:24:00,
2013-01-10 03:29:00,42.5,27.5,30.34,NNE,18,2.0,11.0,55,0.00,,---,0.00,VWS V14.01,2013-01-10 08:29:00,
2013-01-10 03:30:00,42.4,27.4,30.34,WNW,288,4.0,11.0,55,0.00,,---,0.00,VWS V14.01,2013-01-10 08:30:00,
2013-01-10 03:34:00,42.4,27.0,30.34,North,352,2.0,10.0,54,0.00,,---,0.00,VWS V14.01,2013-01-10 08:34:00,
2013-01-10 03:39:00,42.3,27.3,30.34,NW,305,3.0,14.0,55,0.00,,---,0.00,VWS V14.01,2013-01-10 08:39:00,
2013-01-10 03:44:00,42.2,26.8,30.34,West,269,9.0,14.0,54,0.00,,---,0.00,VWS V14.01,2013-01-10 08:44:00,
2013-01-10 03:49:00,42.2,26.3,30.34,WNW,290,2.0,14.0,53,0.00,,---,0.00,VWS V14.01,2013-01-10 08:49:00,
2013-01-10 03:54:00,42.1,26.7,30.34,WSW,257,2.0,14.0,54,0.00,,---,0.00,VWS V14.01,2013-01-10 08:54:00,
2013-01-10 03:59:00,41.9,26.5,30.35,West,278,5.0,14.0,54,0.00,,---,0.00,VWS V14.01,2013-01-10 08:59:00,
2013-01-10 04:00:00,41.9,26.5,30.34,West,274,1.0,14.0,54,0.00,,---,0.00,VWS V14.01,2013-01-10 09:00:00,
2013-01-10 04:04:00,41.7,26.7,30.35,WNW,295,2.0,5.0,55,0.00,,---,0.00,VWS V14.01,2013-01-10 09:04:00,
2013-01-10 04:09:00,41.6,26.6,30.35,NNE,30,7.0,12.0,55,0.00,,---,0.00,VWS V14.01,2013-01-10 09:09:00,
2013-01-10 04:14:00,41.5,26.5,30.35,West,278,5.0,12.0,55,0.00,,---,0.00,VWS V14.01,2013-01-10 09:14:00,
2013-01-10 04:18:00,41.4,26.5,30.35,NE,43,2.0,12.0,55,0.00,,---,0.00,VWS V14.01,2013-01-10 09:18:00,
2013-01-10 04:23:00,41.3,26.4,30.35,WNW,290,3.0,12.0,55,0.00,,---,0.00,VWS V14.01,2013-01-10 09:23:00,
2013-01-10 04:28:00,41.2,26.3,30.35,West,267,5.0,12.0,55,0.00,,---,0.00,VWS V14.01,2013-01-10 09:28:00,
2013-01-10 04:30:00,41.3,26.4,30.35,WNW,283,2.0,12.0,55,0.00,,---,0.00,VWS V14.01,2013-01-10 09:30:00,
2013-01-10 04:33:00,41.3,26.4,30.35,WSW,252,1.0,5.0,55,0.00,,---,0.00,VWS V14.01,2013-01-10 09:33:00,
2013-01-10 04:38:00,41.2,26.3,30.36,North,352,2.0,10.0,55,0.00,,---,0.00,VWS V14.01,2013-01-10 09:38:00,
2013-01-10 04:43:00,41.1,26.2,30.36,West,262,6.0,10.0,55,0.00,,---,0.00,VWS V14.01,2013-01-10 09:43:00,
2013-01-10 04:48:00,41.1,26.2,30.36,WNW,301,2.0,10.0,55,0.00,,---,0.00,VWS V14.01,2013-01-10 09:48:00,
2013-01-10 04:53:00,41.1,26.2,30.37,NNW,328,2.0,10.0,55,0.00,,---,0.00,VWS V14.01,2013-01-10 09:53:00,
2013-01-10 04:58:00,41.0,26.1,30.37,NNW,328,2.0,10.0,55,0.00,,---,0.00,VWS V14.01,2013-01-10 09:58:00,
2013-01-10 05:00:00,41.0,26.1,30.37,West,269,2.0,10.0,55,0.00,,---,0.00,VWS V14.01,2013-01-10 10:00:00,
2013-01-10 05:03:00,40.8,26.3,30.37,West,281,3.0,6.0,56,0.00,,---,0.00,VWS V14.01,2013-01-10 10:03:00,
2013-01-10 05:08:00,40.7,26.2,30.37,WNW,300,5.0,6.0,56,0.00,,---,0.00,VWS V14.01,2013-01-10 10:08:00,
2013-01-10 05:13:00,40.7,26.2,30.37,West,263,5.0,6.0,56,0.00,,---,0.00,VWS V14.01,2013-01-10 10:13:00,
2013-01-10 05:18:00,40.8,26.3,30.37,NW,311,4.0,9.0,56,0.00,,---,0.00,VWS V14.01,2013-01-10 10:18:00,
2013-01-10 05:23:00,40.7,26.2,30.37,WNW,288,2.0,10.0,56,0.00,,---,0.00,VWS V14.01,2013-01-10 10:23:00,
2013-01-10 05:28:00,40.6,26.1,30.38,WNW,293,1.0,10.0,56,0.00,,---,0.00,VWS V14.01,2013-01-10 10:28:00,
2013-01-10 05:30:00,40.6,26.1,30.38,SE,134,0.0,10.0,56,0.00,,---,0.00,VWS V14.01,2013-01-10 10:30:00,
2013-01-10 05:33:00,40.5,26.5,30.38,ENE,58,3.0,3.0,57,0.00,,---,0.00,VWS V14.01,2013-01-10 10:33:00,
2013-01-10 05:38:00,40.2,26.2,30.39,NNW,338,1.0,6.0,57,0.00,,---,0.00,VWS V14.01,2013-01-10 10:38:00,
2013-01-10 05:43:00,39.9,26.8,30.39,NE,47,0.0,7.0,59,0.00,,---,0.00,VWS V14.01,2013-01-10 10:43:00,
2013-01-10 05:48:00,39.7,26.6,30.39,SSW,212,0.0,7.0,59,0.00,,---,0.00,VWS V14.01,2013-01-10 10:48:00,
2013-01-10 05:53:00,39.5,26.4,30.39,NW,320,0.0,7.0,59,0.00,,---,0.00,VWS V14.01,2013-01-10 10:53:00,
2013-01-10 05:58:00,39.7,26.6,30.40,North,356,0.0,7.0,59,0.00,,---,0.00,VWS V14.01,2013-01-10 10:58:00,
2013-01-10 06:00:00,39.7,26.6,30.40,WNW,283,3.0,7.0,59,0.00,,---,0.00,VWS V14.01,2013-01-10 11:00:00,
2013-01-10 06:03:00,39.8,26.7,30.40,SSW,205,4.0,9.0,59,0.00,,---,0.00,VWS V14.01,2013-01-10 11:03:00,
2013-01-10 06:08:00,39.9,26.8,30.40,WNW,295,2.0,9.0,59,0.00,,---,0.00,VWS V14.01,2013-01-10 11:08:00,
2013-01-10 06:13:00,39.9,26.8,30.40,West,265,0.0,9.0,59,0.00,,---,0.00,VWS V14.01,2013-01-10 11:13:00,
2013-01-10 06:18:00,39.7,26.6,30.41,NNW,345,2.0,9.0,59,0.00,,---,0.00,VWS V14.01,2013-01-10 11:18:00,
2013-01-10 06:23:00,39.6,26.9,30.41,NW,305,1.0,9.0,60,0.00,,---,0.00,VWS V14.01,2013-01-10 11:23:00,
2013-01-10 06:28:00,39.5,27.2,30.41,North,8,0.0,9.0,61,0.00,,---,0.00,VWS V14.01,2013-01-10 11:28:00,
2013-01-10 06:30:00,39.4,26.7,30.42,NNE,30,1.0,9.0,60,0.00,,---,0.00,VWS V14.01,2013-01-10 11:30:00,
2013-01-10 06:33:00,39.4,26.7,30.42,NNE,24,2.0,5.0,60,0.00,,---,0.00,VWS V14.01,2013-01-10 11:33:00,
2013-01-10 06:38:00,39.5,26.4,30.42,WNW,285,3.0,5.0,59,0.00,,---,0.00,VWS V14.01,2013-01-10 11:38:00,
2013-01-10 06:43:00,39.5,26.8,30.42,NNE,13,1.0,5.0,60,0.00,,---,0.00,VWS V14.01,2013-01-10 11:43:00,
2013-01-10 06:48:00,39.6,26.5,30.42,NNE,26,4.0,5.0,59,0.00,,---,0.00,VWS V14.01,2013-01-10 11:48:00,
2013-01-10 06:53:00,39.4,26.7,30.43,NNE,12,2.0,7.0,60,0.00,,---,0.00,VWS V14.01,2013-01-10 11:53:00,
2013-01-10 06:58:00,39.5,26.8,30.43,WNW,302,3.0,7.0,60,0.00,,---,0.00,VWS V14.01,2013-01-10 11:58:00,
2013-01-10 07:00:00,39.6,26.5,30.43,WNW,294,2.0,7.0,59,0.00,,---,0.00,VWS V14.01,2013-01-10 12:00:00,
2013-01-10 07:03:00,39.6,26.5,30.43,NE,40,0.0,7.0,59,0.00,,---,0.00,VWS V14.01,2013-01-10 12:03:00,
2013-01-10 07:08:00,39.7,26.6,30.42,WNW,300,3.0,10.0,59,0.00,,---,0.00,VWS V14.01,2013-01-10 12:08:00,
2013-01-10 07:13:00,39.8,26.2,30.43,NW,317,6.0,10.0,58,0.00,,---,0.00,VWS V14.01,2013-01-10 12:13:00,
2013-01-10 07:18:00,39.9,26.3,30.42,NNE,20,1.0,11.0,58,0.00,,---,0.00,VWS V14.01,2013-01-10 12:18:00,
2013-01-10 07:23:00,39.7,26.1,30.43,WSW,238,1.0,11.0,58,0.00,,---,0.00,VWS V14.01,2013-01-10 12:23:00,
2013-01-10 07:28:00,39.6,26.1,30.44,West,264,6.0,11.0,58,0.00,,---,0.00,VWS V14.01,2013-01-10 12:28:00,
2013-01-10 07:30:00,39.6,26.1,30.44,WNW,291,3.0,11.0,58,0.00,,---,0.00,VWS V14.01,2013-01-10 12:30:00,
2013-01-10 07:33:00,39.7,25.7,30.45,ENE,73,0.0,9.0,57,0.00,,---,0.00,VWS V14.01,2013-01-10 12:33:00,
2013-01-10 07:38:00,39.7,25.7,30.45,SW,226,0.0,9.0,57,0.00,,---,0.00,VWS V14.01,2013-01-10 12:38:00,
2013-01-10 07:43:00,39.5,26.0,30.47,WNW,285,1.0,9.0,58,0.00,,---,0.00,VWS V14.01,2013-01-10 12:43:00,
2013-01-10 07:48:00,39.3,25.8,30.47,WSW,256,0.0,9.0,58,0.00,,---,0.00,VWS V14.01,2013-01-10 12:48:00,
2013-01-10 07:53:00,39.5,26.0,30.47,NNW,330,6.0,9.0,58,0.00,,---,0.00,VWS V14.01,2013-01-10 12:53:00,
2013-01-10 07:58:00,39.7,25.7,30.48,NW,311,1.0,9.0,57,0.00,,---,0.00,VWS V14.01,2013-01-10 12:58:00,
2013-01-10 08:00:00,39.7,25.7,30.48,NNW,339,4.0,9.0,57,0.00,,---,0.00,VWS V14.01,2013-01-10 13:00:00,
2013-01-10 08:03:00,39.7,26.1,30.48,WNW,293,5.0,5.0,58,0.00,,---,0.00,VWS V14.01,2013-01-10 13:03:00,
2013-01-10 08:08:00,39.6,26.1,30.48,NNE,15,8.0,11.0,58,0.00,,---,0.00,VWS V14.01,2013-01-10 13:08:00,
2013-01-10 08:13:00,39.9,26.3,30.48,NW,307,5.0,11.0,58,0.00,,---,0.00,VWS V14.01,2013-01-10 13:13:00,
2013-01-10 08:18:00,40.0,26.0,30.48,NW,309,6.0,11.0,57,0.00,,---,0.00,VWS V14.01,2013-01-10 13:18:00,
2013-01-10 08:23:00,40.3,26.3,30.48,NE,36,6.0,11.0,57,0.00,,---,0.00,VWS V14.01,2013-01-10 13:23:00,
2013-01-10 08:28:00,40.3,25.9,30.48,North,356,6.0,11.0,56,0.00,,---,0.00,VWS V14.01,2013-01-10 13:28:00,
2013-01-10 08:30:00,40.4,26.0,30.49,North,9,8.0,17.0,56,0.00,,---,0.00,VWS V14.01,2013-01-10 13:30:00,
2013-01-10 08:33:00,40.5,26.0,30.49,West,278,5.0,11.0,56,0.00,,---,0.00,VWS V14.01,2013-01-10 13:33:00,
2013-01-10 08:38:00,40.5,26.0,30.49,NNW,338,5.0,11.0,56,0.00,,---,0.00,VWS V14.01,2013-01-10 13:38:00,
2013-01-10 08:43:00,40.6,25.7,30.50,WNW,293,3.0,11.0,55,0.00,,---,0.00,VWS V14.01,2013-01-10 13:43:00,
2013-01-10 08:48:00,40.7,25.8,30.50,WSW,257,3.0,13.0,55,0.00,,---,0.00,VWS V14.01,2013-01-10 13:48:00,
2013-01-10 08:53:00,40.8,25.9,30.49,West,262,7.0,13.0,55,0.00,,---,0.00,VWS V14.01,2013-01-10 13:53:00,
2013-01-10 08:58:00,40.8,25.9,30.50,West,273,6.0,13.0,55,0.00,,---,0.00,VWS V14.01,2013-01-10 13:58:00,
2013-01-10 09:00:00,40.8,25.9,30.49,West,276,11.0,16.0,55,0.00,,---,0.00,VWS V14.01,2013-01-10 14:00:00,
2013-01-10 09:03:00,40.9,26.0,30.49,NW,313,3.0,14.0,55,0.00,,---,0.00,VWS V14.01,2013-01-10 14:03:00,
2013-01-10 09:08:00,41.0,25.6,30.50,WNW,295,6.0,14.0,54,0.00,,---,0.00,VWS V14.01,2013-01-10 14:08:00,
2013-01-10 09:13:00,41.0,25.6,30.49,WNW,300,5.0,14.0,54,0.00,,---,0.00,VWS V14.01,2013-01-10 14:13:00,
2013-01-10 09:18:00,41.1,25.3,30.50,West,276,6.0,14.0,53,0.00,,---,0.00,VWS V14.01,2013-01-10 14:18:00,
2013-01-10 09:23:00,41.2,25.4,30.50,North,5,2.0,14.0,53,0.00,,---,0.00,VWS V14.01,2013-01-10 14:23:00,
2013-01-10 09:28:00,41.2,25.4,30.50,NNW,343,6.0,14.0,53,0.00,,---,0.00,VWS V14.01,2013-01-10 14:28:00,
2013-01-10 09:30:00,41.1,24.8,30.51,NNE,16,13.0,20.0,52,0.00,,---,0.00,VWS V14.01,2013-01-10 14:30:00,
2013-01-10 09:33:00,41.1,25.3,30.51,NNE,16,3.0,13.0,53,0.00,,---,0.00,VWS V14.01,2013-01-10 14:33:00,
2013-01-10 09:38:00,41.0,24.7,30.51,NNW,330,3.0,13.0,52,0.00,,---,0.00,VWS V14.01,2013-01-10 14:38:00,
2013-01-10 09:43:00,40.9,24.6,30.51,NNW,347,9.0,15.0,52,0.00,,---,0.00,VWS V14.01,2013-01-10 14:43:00,
2013-01-10 09:48:00,40.8,24.5,30.51,NNW,343,4.0,15.0,52,0.00,,---,0.00,VWS V14.01,2013-01-10 14:48:00,
2013-01-10 09:53:00,40.9,24.6,30.52,North,6,4.0,15.0,52,0.00,,---,0.00,VWS V14.01,2013-01-10 14:53:00,
2013-01-10 09:58:00,40.8,24.5,30.51,NNE,29,4.0,15.0,52,0.00,,---,0.00,VWS V14.01,2013-01-10 14:58:00,
2013-01-10 10:03:00,40.8,25.0,30.52,ENE,63,4.0,6.0,53,0.00,,---,0.00,VWS V14.01,2013-01-10 15:03:00,
2013-01-10 10:08:00,41.1,25.3,30.51,WNW,283,7.0,7.0,53,0.00,,---,0.00,VWS V14.01,2013-01-10 15:08:00,
2013-01-10 10:13:00,41.3,25.0,30.51,West,266,5.0,8.0,52,0.00,,---,0.00,VWS V14.01,2013-01-10 15:13:00,
2013-01-10 10:18:00,41.5,24.3,30.52,NW,324,3.0,13.0,50,0.00,,---,0.00,VWS V14.01,2013-01-10 15:18:00,
2013-01-10 10:23:00,41.6,24.8,30.52,NNE,28,1.0,13.0,51,0.00,,---,0.00,VWS V14.01,2013-01-10 15:23:00,
2013-01-10 10:28:00,41.7,24.9,30.52,NE,43,4.0,13.0,51,0.00,,---,0.00,VWS V14.01,2013-01-10 15:28:00,
2013-01-10 10:30:00,41.8,24.1,30.52,NW,309,8.0,13.0,49,0.00,,---,0.00,VWS V14.01,2013-01-10 15:30:00,
2013-01-10 10:33:00,42.0,24.7,30.51,NNE,13,3.0,9.0,50,0.00,,---,0.00,VWS V14.01,2013-01-10 15:33:00,
2013-01-10 10:38:00,42.2,24.4,30.51,North,355,6.0,12.0,49,0.00,,---,0.00,VWS V14.01,2013-01-10 15:38:00,
2013-01-10 10:43:00,42.0,24.7,30.51,North,4,4.0,12.0,50,0.00,,---,0.00,VWS V14.01,2013-01-10 15:43:00,
2013-01-10 10:48:00,41.9,24.6,30.51,NE,36,5.0,12.0,50,0.00,,---,0.00,VWS V14.01,2013-01-10 15:48:00,
2013-01-10 10:53:00,41.9,25.1,30.51,North,1,3.0,12.0,51,0.00,,---,0.00,VWS V14.01,2013-01-10 15:53:00,
2013-01-10 10:58:00,41.9,24.6,30.51,NNE,23,4.0,12.0,50,0.00,,---,0.00,VWS V14.01,2013-01-10 15:58:00,
2013-01-10 11:00:00,41.9,24.6,30.51,NNE,28,3.0,12.0,50,0.00,,---,0.00,VWS V14.01,2013-01-10 16:00:00,
2013-01-10 11:03:00,41.9,24.6,30.51,North,1,1.0,7.0,50,0.00,,---,0.00,VWS V14.01,2013-01-10 16:03:00,
2013-01-10 11:08:00,41.9,24.1,30.51,NE,56,3.0,10.0,49,0.00,,---,0.00,VWS V14.01,2013-01-10 16:08:00,
2013-01-10 11:13:00,41.7,24.5,30.50,NNE,18,5.0,10.0,50,0.00,,---,0.00,VWS V14.01,2013-01-10 16:13:00,
2013-01-10 11:18:00,41.7,24.5,30.50,North,360,3.0,12.0,50,0.00,,---,0.00,VWS V14.01,2013-01-10 16:18:00,
2013-01-10 11:23:00,41.9,24.6,30.50,NE,43,4.0,12.0,50,0.00,,---,0.00,VWS V14.01,2013-01-10 16:23:00,
2013-01-10 11:28:00,41.9,25.1,30.50,NW,319,2.0,12.0,51,0.00,,---,0.00,VWS V14.01,2013-01-10 16:28:00,
2013-01-10 11:30:00,42.0,25.2,30.49,NW,310,1.0,12.0,51,0.00,,---,0.00,VWS V14.01,2013-01-10 16:30:00,
2013-01-10 11:33:00,42.1,25.3,30.50,NE,40,3.0,8.0,51,0.00,,---,0.00,VWS V14.01,2013-01-10 16:33:00,
2013-01-10 11:38:00,42.3,24.5,30.50,NW,309,10.0,10.0,49,0.00,,---,0.00,VWS V14.01,2013-01-10 16:38:00,
2013-01-10 11:43:00,42.5,24.7,30.49,West,270,11.0,11.0,49,0.00,,---,0.00,VWS V14.01,2013-01-10 16:43:00,
2013-01-10 11:48:00,42.8,25.0,30.49,NNW,328,3.0,11.0,49,0.00,,---,0.00,VWS V14.01,2013-01-10 16:48:00,
2013-01-10 11:53:00,43.1,24.8,30.49,NNW,330,4.0,12.0,48,0.00,,---,0.00,VWS V14.01,2013-01-10 16:53:00,
2013-01-10 11:58:00,43.2,25.4,30.48,NW,319,2.0,12.0,49,0.00,,---,0.00,VWS V14.01,2013-01-10 16:58:00,
2013-01-10 12:00:00,43.2,24.9,30.48,NE,36,8.0,12.0,48,0.00,,---,0.00,VWS V14.01,2013-01-10 17:00:00,
2013-01-10 12:03:00,43.2,25.4,30.48,NNE,26,5.0,8.0,49,0.00,,---,0.00,VWS V14.01,2013-01-10 17:03:00,
2013-01-10 12:08:00,43.5,25.1,30.48,NNE,20,7.0,8.0,48,0.00,,---,0.00,VWS V14.01,2013-01-10 17:08:00,
2013-01-10 12:13:00,43.6,24.2,30.48,WNW,298,5.0,13.0,46,0.00,,---,0.00,VWS V14.01,2013-01-10 17:13:00,
2013-01-10 12:18:00,43.5,24.6,30.48,NNE,20,7.0,13.0,47,0.00,,---,0.00,VWS V14.01,2013-01-10 17:18:00,
2013-01-10 12:23:00,43.6,24.2,30.48,NW,316,4.0,14.0,46,0.00,,---,0.00,VWS V14.01,2013-01-10 17:23:00,
2013-01-10 12:28:00,43.7,24.8,30.47,West,271,5.0,14.0,47,0.00,,---,0.00,VWS V14.01,2013-01-10 17:28:00,
2013-01-10 12:30:00,43.7,24.8,30.47,NE,44,1.0,14.0,47,0.00,,---,0.00,VWS V14.01,2013-01-10 17:30:00,
2013-01-10 12:33:00,43.8,24.9,30.47,NNE,13,3.0,4.0,47,0.00,,---,0.00,VWS V14.01,2013-01-10 17:33:00,
2013-01-10 12:38:00,43.7,25.3,30.47,NNE,16,2.0,7.0,48,0.00,,---,0.00,VWS V14.01,2013-01-10 17:38:00,
2013-01-10 12:43:00,43.9,25.0,30.47,NE,38,4.0,7.0,47,0.00,,---,0.00,VWS V14.01,2013-01-10 17:43:00,
2013-01-10 12:48:00,44.2,25.3,30.47,North,8,5.0,7.0,47,0.00,,---,0.00,VWS V14.01,2013-01-10 17:48:00,
2013-01-10 12:53:00,44.2,25.3,30.47,West,265,10.0,10.0,47,0.00,,---,0.00,VWS V14.01,2013-01-10 17:53:00,
2013-01-10 12:58:00,44.4,24.4,30.47,NE,49,2.0,13.0,45,0.00,,---,0.00,VWS V14.01,2013-01-10 17:58:00,
2013-01-10 13:00:00,44.4,24.9,30.47,NNE,20,6.0,13.0,46,0.00,,---,0.00,VWS V14.01,2013-01-10 18:00:00,
2013-01-10 13:03:00,44.5,25.0,30.47,NNW,345,2.0,6.0,46,0.00,,---,0.00,VWS V14.01,2013-01-10 18:03:00,
2013-01-10 13:08:00,44.6,24.6,30.47,NW,309,3.0,8.0,45,0.00,,---,0.00,VWS V14.01,2013-01-10 18:08:00,
2013-01-10 13:13:00,44.8,24.2,30.47,West,267,10.0,10.0,44,0.00,,---,0.00,VWS V14.01,2013-01-10 18:13:00,
2013-01-10 13:18:00,44.9,24.9,30.47,ENE,61,1.0,10.0,45,0.00,,---,0.00,VWS V14.01,2013-01-10 18:18:00,
2013-01-10 13:23:00,45.1,24.5,30.47,NNE,27,3.0,10.0,44,0.00,,---,0.00,VWS V14.01,2013-01-10 18:23:00,
2013-01-10 13:28:00,45.1,25.0,30.47,WNW,298,6.0,10.0,45,0.00,,---,0.00,VWS V14.01,2013-01-10 18:28:00,
2013-01-10 13:30:00,45.0,24.4,30.47,NW,307,9.0,11.0,44,0.00,,---,0.00,VWS V14.01,2013-01-10 18:30:00,
2013-01-10 13:33:00,45.0,24.4,30.47,West,271,6.0,9.0,44,0.00,,---,0.00,VWS V14.01,2013-01-10 18:33:00,
2013-01-10 13:38:00,45.0,25.0,30.48,North,11,7.0,9.0,45,0.00,,---,0.00,VWS V14.01,2013-01-10 18:38:00,
2013-01-10 13:43:00,44.9,24.3,30.48,NE,37,6.0,9.0,44,0.00,,---,0.00,VWS V14.01,2013-01-10 18:43:00,
2013-01-10 13:48:00,44.9,24.3,30.48,WNW,284,1.0,9.0,44,0.00,,---,0.00,VWS V14.01,2013-01-10 18:48:00,
2013-01-10 13:53:00,44.9,24.9,30.48,North,352,2.0,10.0,45,0.00,,---,0.00,VWS V14.01,2013-01-10 18:53:00,
2013-01-10 13:58:00,44.9,24.3,30.48,NW,312,3.0,10.0,44,0.00,,---,0.00,VWS V14.01,2013-01-10 18:58:00,
2013-01-10 14:00:00,44.9,24.3,30.48,NW,315,2.0,11.0,44,0.00,,---,0.00,VWS V14.01,2013-01-10 19:00:00,
2013-01-10 14:03:00,44.9,24.3,30.48,NW,316,7.0,9.0,44,0.00,,---,0.00,VWS V14.01,2013-01-10 19:03:00,
2013-01-10 14:08:00,44.8,24.2,30.48,West,277,3.0,10.0,44,0.00,,---,0.00,VWS V14.01,2013-01-10 19:08:00,
2013-01-10 14:13:00,44.9,24.3,30.49,NNW,340,4.0,10.0,44,0.00,,---,0.00,VWS V14.01,2013-01-10 19:13:00,
2013-01-10 14:18:00,44.7,24.1,30.49,North,11,2.0,10.0,44,0.00,,---,0.00,VWS V14.01,2013-01-10 19:18:00,
2013-01-10 14:23:00,44.9,24.3,30.48,NNE,28,3.0,10.0,44,0.00,,---,0.00,VWS V14.01,2013-01-10 19:23:00,
2013-01-10 14:28:00,45.0,24.4,30.48,NW,316,5.0,11.0,44,0.00,,---,0.00,VWS V14.01,2013-01-10 19:28:00,
2013-01-10 14:30:00,45.2,24.0,30.48,NNW,338,4.0,11.0,43,0.00,,---,0.00,VWS V14.01,2013-01-10 19:30:00,
2013-01-10 14:33:00,45.3,24.1,30.48,NNW,335,4.0,8.0,43,0.00,,---,0.00,VWS V14.01,2013-01-10 19:33:00,
2013-01-10 14:38:00,45.3,24.1,30.49,NW,315,4.0,8.0,43,0.00,,---,0.00,VWS V14.01,2013-01-10 19:38:00,
2013-01-10 14:43:00,45.4,24.8,30.48,NNE,33,4.0,8.0,44,0.00,,---,0.00,VWS V14.01,2013-01-10 19:43:00,
2013-01-10 14:48:00,45.1,24.5,30.48,East,90,0.0,8.0,44,0.00,,---,0.00,VWS V14.01,2013-01-10 19:48:00,
2013-01-10 14:53:00,45.3,24.1,30.48,WNW,284,3.0,10.0,43,0.00,,---,0.00,VWS V14.01,2013-01-10 19:53:00,
2013-01-10 14:58:00,45.5,24.3,30.49,West,262,2.0,10.0,43,0.00,,---,0.00,VWS V14.01,2013-01-10 19:58:00,
2013-01-10 15:00:00,45.7,24.5,30.48,North,6,5.0,10.0,43,0.00,,---,0.00,VWS V14.01,2013-01-10 20:00:00,
2013-01-10 15:03:00,45.7,23.9,30.49,NW,320,3.0,6.0,42,0.00,,---,0.00,VWS V14.01,2013-01-10 20:03:00,
2013-01-10 15:08:00,45.9,24.7,30.49,NW,319,1.0,6.0,43,0.00,,---,0.00,VWS V14.01,2013-01-10 20:08:00,
2013-01-10 15:13:00,46.0,24.8,30.49,WNW,295,4.0,6.0,43,0.00,,---,0.00,VWS V14.01,2013-01-10 20:13:00,
2013-01-10 15:18:00,46.3,25.0,30.50,WSW,256,1.0,6.0,43,0.00,,---,0.00,VWS V14.01,2013-01-10 20:18:00,
2013-01-10 15:23:00,46.2,25.5,30.50,WNW,288,2.0,6.0,44,0.00,,---,0.00,VWS V14.01,2013-01-10 20:23:00,
2013-01-10 15:28:00,45.9,24.7,30.50,WNW,291,6.0,9.0,43,0.00,,---,0.00,VWS V14.01,2013-01-10 20:28:00,
2013-01-10 15:30:00,45.8,24.6,30.50,West,278,4.0,9.0,43,0.00,,---,0.00,VWS V14.01,2013-01-10 20:30:00,
2013-01-10 15:33:00,45.7,24.5,30.50,West,274,4.0,7.0,43,0.00,,---,0.00,VWS V14.01,2013-01-10 20:33:00,
2013-01-10 15:38:00,45.5,24.9,30.50,WNW,301,3.0,7.0,44,0.00,,---,0.00,VWS V14.01,2013-01-10 20:38:00,
2013-01-10 15:43:00,45.4,24.8,30.50,WSW,238,1.0,7.0,44,0.00,,---,0.00,VWS V14.01,2013-01-10 20:43:00,
2013-01-10 15:48:00,45.3,24.7,30.50,WSW,257,3.0,7.0,44,0.00,,---,0.00,VWS V14.01,2013-01-10 20:48:00,
2013-01-10 15:53:00,45.2,26.2,30.50,West,280,2.0,7.0,47,0.00,,---,0.00,VWS V14.01,2013-01-10 20:53:00,
2013-01-10 15:58:00,45.1,25.0,30.50,WNW,292,3.0,7.0,45,0.00,,---,0.00,VWS V14.01,2013-01-10 20:58:00,
2013-01-10 16:00:00,45.1,25.0,30.50,West,281,2.0,7.0,45,0.00,,---,0.00,VWS V14.01,2013-01-10 21:00:00,
2013-01-10 16:03:00,45.1,24.5,30.50,NW,317,2.0,6.0,44,0.00,,---,0.00,VWS V14.01,2013-01-10 21:03:00,
2013-01-10 16:08:00,45.1,25.0,30.51,WNW,292,0.0,6.0,45,0.00,,---,0.00,VWS V14.01,2013-01-10 21:08:00,
2013-01-10 16:13:00,44.9,24.9,30.50,WNW,283,3.0,7.0,45,0.00,,---,0.00,VWS V14.01,2013-01-10 21:13:00,
2013-01-10 16:18:00,44.9,24.9,30.51,West,281,1.0,7.0,45,0.00,,---,0.00,VWS V14.01,2013-01-10 21:18:00,
2013-01-10 16:23:00,44.8,25.3,30.51,West,264,0.0,7.0,46,0.00,,---,0.00,VWS V14.01,2013-01-10 21:23:00,
2013-01-10 16:28:00,44.6,25.1,30.51,West,271,6.0,7.0,46,0.00,,---,0.00,VWS V14.01,2013-01-10 21:28:00,
2013-01-10 16:30:00,44.7,24.7,30.51,WNW,283,2.0,7.0,45,0.00,,---,0.00,VWS V14.01,2013-01-10 21:30:00,
2013-01-10 16:33:00,44.5,25.0,30.51,NW,314,3.0,4.0,46,0.00,,---,0.00,VWS V14.01,2013-01-10 21:33:00,
2013-01-10 16:38:00,44.3,24.8,30.51,WNW,282,2.0,4.0,46,0.00,,---,0.00,VWS V14.01,2013-01-10 21:38:00,
2013-01-10 16:43:00,44.1,25.2,30.51,WNW,290,1.0,4.0,47,0.00,,---,0.00,VWS V14.01,2013-01-10 21:43:00,
2013-01-10 16:48:00,44.0,25.1,30.51,WSW,256,3.0,4.0,47,0.00,,---,0.00,VWS V14.01,2013-01-10 21:48:00,
2013-01-10 16:53:00,43.9,25.0,30.51,West,270,0.0,4.0,47,0.00,,---,0.00,VWS V14.01,2013-01-10 21:53:00,
2013-01-10 16:58:00,43.7,24.8,30.51,WSW,243,0.0,4.0,47,0.00,,---,0.00,VWS V14.01,2013-01-10 21:58:00,
2013-01-10 17:00:00,43.6,25.2,30.52,WSW,243,0.0,4.0,48,0.00,,---,0.00,VWS V14.01,2013-01-10 22:00:00,
2013-01-10 17:03:00,43.4,25.0,30.52,WSW,257,0.0,1.0,48,0.00,,---,0.00,VWS V14.01,2013-01-10 22:03:00,
2013-01-10 17:08:00,43.3,24.9,30.51,West,271,0.0,2.0,48,0.00,,---,0.00,VWS V14.01,2013-01-10 22:08:00,
2013-01-10 17:13:00,42.2,27.2,30.52,West,271,0.0,2.0,55,0.00,,---,0.00,VWS V14.01,2013-01-10 22:13:00,
2013-01-10 17:18:00,41.1,26.2,30.52,West,271,0.0,2.0,55,0.00,,---,0.00,VWS V14.01,2013-01-10 22:18:00,
2013-01-10 17:23:00,40.7,25.4,30.52,West,271,0.0,2.0,54,0.00,,---,0.00,VWS V14.01,2013-01-10 22:23:00,
2013-01-10 17:28:00,40.6,27.0,30.52,West,271,0.0,2.0,58,0.00,,---,0.00,VWS V14.01,2013-01-10 22:28:00,
2013-01-10 17:30:00,40.3,26.7,30.52,West,271,0.0,2.0,58,0.00,,---,0.00,VWS V14.01,2013-01-10 22:30:00,
2013-01-10 17:33:00,39.7,27.4,30.52,North,10,0.0,0.0,61,0.00,,---,0.00,VWS V14.01,2013-01-10 22:33:00,
2013-01-10 17:38:00,38.6,27.9,30.52,NNE,24,0.0,0.0,65,0.00,,---,0.00,VWS V14.01,2013-01-10 22:38:00,
2013-01-10 17:43:00,38.1,27.0,30.52,NNE,25,0.0,0.0,64,0.00,,---,0.00,VWS V14.01,2013-01-10 22:43:00,
2013-01-10 17:48:00,37.9,26.8,30.52,NNE,24,0.0,0.0,64,0.00,,---,0.00,VWS V14.01,2013-01-10 22:48:00,
2013-01-10 17:53:00,37.6,26.5,30.52,NNE,24,0.0,0.0,64,0.00,,---,0.00,VWS V14.01,2013-01-10 22:53:00,
2013-01-10 17:58:00,37.3,26.3,30.52,SE,125,0.0,0.0,64,0.00,,---,0.00,VWS V14.01,2013-01-10 22:58:00,
2013-01-10 18:00:00,37.2,26.2,30.53,SE,127,0.0,0.0,64,0.00,,---,0.00,VWS V14.01,2013-01-10 23:00:00,
2013-01-10 18:03:00,37.1,26.4,30.53,SE,127,0.0,0.0,65,0.00,,---,0.00,VWS V14.01,2013-01-10 23:03:00,
2013-01-10 18:08:00,36.7,27.5,30.53,SE,127,0.0,0.0,69,0.00,,---,0.00,VWS V14.01,2013-01-10 23:08:00,
2013-01-10 18:13:00,36.2,27.0,30.53,SE,127,0.0,0.0,69,0.00,,---,0.00,VWS V14.01,2013-01-10 23:13:00,
2013-01-10 18:18:00,35.9,26.7,30.54,SE,127,0.0,0.0,69,0.00,,---,0.00,VWS V14.01,2013-01-10 23:18:00,
2013-01-10 18:23:00,35.6,28.1,30.54,SE,127,0.0,0.0,74,0.00,,---,0.00,VWS V14.01,2013-01-10 23:23:00,
2013-01-10 18:28:00,35.2,26.8,30.54,SE,127,0.0,0.0,71,0.00,,---,0.00,VWS V14.01,2013-01-10 23:28:00,
2013-01-10 18:30:00,34.9,26.8,30.54,SE,127,0.0,0.0,72,0.00,,---,0.00,VWS V14.01,2013-01-10 23:30:00,
2013-01-10 18:33:00,34.8,26.7,30.54,SE,127,0.0,0.0,72,0.00,,---,0.00,VWS V14.01,2013-01-10 23:33:00,
2013-01-10 18:38:00,34.7,26.6,30.54,SE,126,0.0,0.0,72,0.00,,---,0.00,VWS V14.01,2013-01-10 23:38:00,
2013-01-10 18:43:00,34.5,28.0,30.55,SE,127,0.0,0.0,77,0.00,,---,0.00,VWS V14.01,2013-01-10 23:43:00,
2013-01-10 18:48:00,34.1,28.0,30.54,SE,127,0.0,0.0,78,0.00,,---,0.00,VWS V14.01,2013-01-10 23:48:00,
2013-01-10 18:53:00,34.0,27.2,30.54,SE,127,0.0,0.0,76,0.00,,---,0.00,VWS V14.01,2013-01-10 23:53:00,
2013-01-10 18:58:00,34.0,27.2,30.54,SE,133,0.0,0.0,76,0.00,,---,0.00,VWS V14.01,2013-01-10 23:58:00,
2013-01-10 19:00:00,34.0,27.9,30.54,SE,132,0.0,0.0,78,0.00,,---,0.00,VWS V14.01,2013-01-11 00:00:00,
2013-01-10 19:04:00,33.9,27.8,30.54,SE,132,0.0,0.0,78,0.00,,---,0.00,VWS V14.01,2013-01-11 00:04:00,
2013-01-10 19:09:00,33.6,28.1,30.53,SE,133,0.0,0.0,80,0.00,,---,0.00,VWS V14.01,2013-01-11 00:09:00,
2013-01-10 19:13:00,33.5,27.7,30.53,WSW,248,0.0,0.0,79,0.00,,---,0.00,VWS V14.01,2013-01-11 00:13:00,
2013-01-10 19:18:00,33.4,27.9,30.52,SSE,155,0.0,0.0,80,0.00,,---,0.00,VWS V14.01,2013-01-11 00:18:00,
2013-01-10 19:24:00,33.6,27.2,30.53,SE,143,3.0,4.0,77,0.00,,---,0.00,VWS V14.01,2013-01-11 00:24:00,
2013-01-10 19:29:00,35.2,26.4,30.53,NW,315,0.0,4.0,70,0.00,,---,0.00,VWS V14.01,2013-01-11 00:29:00,
2013-01-10 19:30:00,36.2,26.7,30.53,NW,307,1.0,4.0,68,0.00,,---,0.00,VWS V14.01,2013-01-11 00:30:00,
2013-01-10 19:34:00,36.5,28.0,30.54,NW,313,0.0,1.0,71,0.00,,---,0.00,VWS V14.01,2013-01-11 00:34:00,
2013-01-10 19:39:00,35.8,27.3,30.53,WSW,258,0.0,2.0,71,0.00,,---,0.00,VWS V14.01,2013-01-11 00:39:00,
2013-01-10 19:44:00,35.3,27.9,30.54,North,10,0.0,2.0,74,0.00,,---,0.00,VWS V14.01,2013-01-11 00:44:00,
2013-01-10 19:49:00,34.7,27.9,30.53,NE,34,0.0,2.0,76,0.00,,---,0.00,VWS V14.01,2013-01-11 00:49:00,
2013-01-10 19:54:00,34.2,27.4,30.54,SSE,148,1.0,2.0,76,0.00,,---,0.00,VWS V14.01,2013-01-11 00:54:00,
2013-01-10 19:59:00,34.2,26.8,30.54,SE,132,0.0,2.0,74,0.00,,---,0.00,VWS V14.01,2013-01-11 00:59:00,
2013-01-10 20:00:00,34.2,27.8,30.54,NNW,333,0.0,2.0,77,0.00,,---,0.00,VWS V14.01,2013-01-11 01:00:00,
2013-01-10 20:04:00,33.9,27.8,30.54,NE,43,0.0,1.0,78,0.00,,---,0.00,VWS V14.01,2013-01-11 01:04:00,
2013-01-10 20:09:00,33.6,27.5,30.54,SE,134,0.0,1.0,78,0.00,,---,0.00,VWS V14.01,2013-01-11 01:09:00,
2013-01-10 20:14:00,33.5,27.1,30.54,SE,133,1.0,1.0,77,0.00,,---,0.00,VWS V14.01,2013-01-11 01:14:00,
2013-01-10 20:19:00,33.4,27.0,30.54,NNE,27,1.0,2.0,77,0.00,,---,0.00,VWS V14.01,2013-01-11 01:19:00,
2013-01-10 20:24:00,33.1,27.9,30.55,East,83,0.0,2.0,81,0.00,,---,0.00,VWS V14.01,2013-01-11 01:24:00,
2013-01-10 20:29:00,32.7,27.2,30.55,East,83,0.0,2.0,80,0.00,,---,0.00,VWS V14.01,2013-01-11 01:29:00,
2013-01-10 20:30:00,32.7,27.2,30.55,East,83,0.0,2.0,80,0.00,,---,0.00,VWS V14.01,2013-01-11 01:30:00,
2013-01-10 20:34:00,32.6,27.4,30.55,NE,43,1.0,2.0,81,0.00,,---,0.00,VWS V14.01,2013-01-11 01:34:00,
2013-01-10 20:39:00,32.2,27.0,30.54,NE,49,0.0,2.0,81,0.00,,---,0.00,VWS V14.01,2013-01-11 01:39:00,
2013-01-10 20:44:00,32.0,26.8,30.55,NE,50,0.0,2.0,81,0.00,,---,0.00,VWS V14.01,2013-01-11 01:44:00,
2013-01-10 20:49:00,32.0,26.5,30.55,SE,146,0.0,2.0,80,0.00,,---,0.00,VWS V14.01,2013-01-11 01:49:00,
2013-01-10 20:54:00,32.1,26.9,30.55,SE,146,0.0,2.0,81,0.00,,---,0.00,VWS V14.01,2013-01-11 01:54:00,
2013-01-10 20:59:00,31.7,26.8,30.55,SE,146,0.0,2.0,82,0.00,,---,0.00,VWS V14.01,2013-01-11 01:59:00,
2013-01-10 21:00:00,31.7,26.5,30.55,SE,146,0.0,2.0,81,0.00,,---,0.00,VWS V14.01,2013-01-11 02:00:00,
2013-01-10 21:04:00,31.6,26.8,30.55,SE,146,0.0,0.0,82,0.00,,---,0.00,VWS V14.01,2013-01-11 02:04:00,
2013-01-10 21:09:00,31.4,26.8,30.55,SE,146,0.0,0.0,83,0.00,,---,0.00,VWS V14.01,2013-01-11 02:09:00,
2013-01-10 21:14:00,31.4,26.5,30.55,SE,146,0.0,0.0,82,0.00,,---,0.00,VWS V14.01,2013-01-11 02:14:00,
2013-01-10 21:19:00,31.3,26.5,30.56,SE,146,0.0,0.0,82,0.00,,---,0.00,VWS V14.01,2013-01-11 02:19:00,
2013-01-10 21:24:00,31.2,26.6,30.56,West,271,0.0,0.0,83,0.00,,---,0.00,VWS V14.01,2013-01-11 02:24:00,
2013-01-10 21:29:00,31.1,27.1,30.55,West,271,0.0,1.0,85,0.00,,---,0.00,VWS V14.01,2013-01-11 02:29:00,
2013-01-10 21:30:00,31.0,27.0,30.55,West,271,0.0,1.0,85,0.00,,---,0.00,VWS V14.01,2013-01-11 02:30:00,
2013-01-10 21:34:00,30.9,26.9,30.55,West,271,0.0,0.0,85,0.00,,---,0.00,VWS V14.01,2013-01-11 02:34:00,
2013-01-10 21:39:00,30.7,26.7,30.56,NW,319,0.0,1.0,85,0.00,,---,0.00,VWS V14.01,2013-01-11 02:39:00,
2013-01-10 21:44:00,30.6,26.6,30.55,NW,319,0.0,1.0,85,0.00,,---,0.00,VWS V14.01,2013-01-11 02:44:00,
2013-01-10 21:49:00,30.6,26.6,30.55,SE,132,1.0,1.0,85,0.00,,---,0.00,VWS V14.01,2013-01-11 02:49:00,
2013-01-10 21:54:00,30.6,26.6,30.55,SE,133,0.0,1.0,85,0.00,,---,0.00,VWS V14.01,2013-01-11 02:54:00,
2013-01-10 21:59:00,30.6,26.6,30.55,SE,133,0.0,1.0,85,0.00,,---,0.00,VWS V14.01,2013-01-11 02:59:00,
2013-01-10 22:00:00,30.5,26.5,30.55,SE,133,0.0,1.0,85,0.00,,---,0.00,VWS V14.01,2013-01-11 03:00:00,
2013-01-10 22:04:00,30.4,26.4,30.56,SE,133,0.0,0.0,85,0.00,,---,0.00,VWS V14.01,2013-01-11 03:04:00,
2013-01-10 22:09:00,30.4,26.4,30.56,SE,133,0.0,0.0,85,0.00,,---,0.00,VWS V14.01,2013-01-11 03:09:00,
2013-01-10 22:14:00,30.4,26.4,30.55,East,91,1.0,1.0,85,0.00,,---,0.00,VWS V14.01,2013-01-11 03:14:00,
2013-01-10 22:19:00,30.5,26.8,30.54,ENE,58,1.0,1.0,86,0.00,,---,0.00,VWS V14.01,2013-01-11 03:19:00,
2013-01-10 22:24:00,30.5,26.8,30.55,ESE,118,2.0,2.0,86,0.00,,---,0.00,VWS V14.01,2013-01-11 03:24:00,
2013-01-10 22:30:00,30.6,26.6,30.55,WNW,283,1.0,2.0,85,0.00,,---,0.00,VWS V14.01,2013-01-11 03:30:00,
2013-01-10 22:35:00,30.6,26.9,30.55,South,176,0.0,1.0,86,0.00,,---,0.00,VWS V14.01,2013-01-11 03:35:00,
2013-01-10 22:40:00,30.7,26.7,30.55,SE,146,0.0,1.0,85,0.00,,---,0.00,VWS V14.01,2013-01-11 03:40:00,
2013-01-10 22:44:00,30.8,26.8,30.54,ENE,63,1.0,2.0,85,0.00,,---,0.00,VWS V14.01,2013-01-11 03:44:00,
2013-01-10 22:49:00,30.6,26.9,30.55,SE,138,2.0,2.0,86,0.00,,---,0.00,VWS V14.01,2013-01-11 03:49:00,
2013-01-10 22:54:00,30.6,26.6,30.54,SE,138,0.0,2.0,85,0.00,,---,0.00,VWS V14.01,2013-01-11 03:54:00,
2013-01-10 22:59:00,30.7,26.7,30.55,South,169,0.0,2.0,85,0.00,,---,0.00,VWS V14.01,2013-01-11 03:59:00,
2013-01-10 23:00:00,30.8,26.8,30.55,South,169,0.0,2.0,85,0.00,,---,0.00,VWS V14.01,2013-01-11 04:00:00,
2013-01-10 23:05:00,30.8,26.5,30.55,South,169,0.0,0.0,84,0.00,,---,0.00,VWS V14.01,2013-01-11 04:05:00,
2013-01-10 23:10:00,30.7,26.7,30.55,ESE,122,1.0,1.0,85,0.00,,---,0.00,VWS V14.01,2013-01-11 04:10:00,
2013-01-10 23:15:00,30.6,26.6,30.55,ESE,121,0.0,1.0,85,0.00,,---,0.00,VWS V14.01,2013-01-11 04:15:00,
2013-01-10 23:20:00,30.5,26.5,30.55,ESE,122,1.0,1.0,85,0.00,,---,0.00,VWS V14.01,2013-01-11 04:20:00,
2013-01-10 23:25:00,30.5,26.5,30.55,SE,146,2.0,2.0,85,0.00,,---,0.00,VWS V14.01,2013-01-11 04:25:00,
2013-01-10 23:30:00,30.5,26.5,30.54,SSE,147,0.0,2.0,85,0.00,,---,0.00,VWS V14.01,2013-01-11 04:30:00,
2013-01-10 23:35:00,30.5,26.2,30.55,SE,146,0.0,1.0,84,0.00,,---,0.00,VWS V14.01,2013-01-11 04:35:00,
2013-01-10 23:40:00,30.5,26.8,30.55,SE,146,1.0,1.0,86,0.00,,---,0.00,VWS V14.01,2013-01-11 04:40:00,
2013-01-10 23:45:00,30.5,27.1,30.55,SE,146,0.0,1.0,87,0.00,,---,0.00,VWS V14.01,2013-01-11 04:45:00,
2013-01-10 23:50:00,30.4,27.0,30.56,SE,136,2.0,2.0,87,0.00,,---,0.00,VWS V14.01,2013-01-11 04:50:00,
2013-01-10 23:55:00,30.4,26.7,30.56,SSE,149,0.0,2.0,86,0.00,,---,0.00,VWS V14.01,2013-01-11 04:55:00,